Time,TemperatureF,DewpointF,PressureIn,WindDirection,WindDirectionDegrees,WindSpeedMPH,WindSpeedGustMPH,Humidity,HourlyPrecipIn,Conditions,Clouds,dailyrainin,SolarRadiationWatts/m^2,SoftwareType,DateUTC
2013-07-06 00:01:00,76.1,72.9,30.05,WSW,240,11.0,13.0,90,0.00,,,0.00,0,HR-IXPWINDi_r2_v1.2.,2013-07-06 04:01:00,
2013-07-06 00:06:00,78.0,74.1,30.05,WSW,246,11.0,13.0,88,0.00,,,0.00,0,HR-IXPWINDi_r2_v1.2.,2013-07-06 04:06:00,
2013-07-06 00:11:00,79.2,74.2,30.05,SW,224,10.0,15.0,85,0.00,,,0.00,0,HR-IXPWINDi_r2_v1.2.,2013-07-06 04:11:00,
2013-07-06 00:16:00,79.7,73.7,30.05,SSW,206,10.0,15.0,82,0.00,,,0.00,0,HR-IXPWINDi_r2_v1.2.,2013-07-06 04:16:00,
2013-07-06 00:21:00,79.6,73.6,30.05,SW,236,11.0,15.0,82,0.00,,,0.00,0,HR-IXPWINDi_r2_v1.2.,2013-07-06 04:21:00,
2013-07-06 00:27:00,79.2,73.2,30.05,SW,221,13.0,14.0,82,0.00,,,0.00,0,HR-IXPWINDi_r2_v1.2.,2013-07-06 04:27:00,
2013-07-06 00:32:00,78.2,72.6,30.05,SW,221,13.0,14.0,83,0.00,,,0.00,0,HR-IXPWINDi_r2_v1.2.,2013-07-06 04:32:00,
2013-07-06 00:37:00,77.4,72.1,30.05,SW,223,12.0,14.0,84,0.00,,,0.00,0,HR-IXPWINDi_r2_v1.2.,2013-07-06 04:37:00,
2013-07-06 00:42:00,77.2,72.3,30.05,SW,217,10.0,13.0,85,0.00,,,0.00,0,HR-IXPWINDi_r2_v1.2.,2013-07-06 04:42:00,
2013-07-06 00:48:00,77.6,72.7,30.06,SW,227,11.0,13.0,85,0.00,,,0.00,0,HR-IXPWINDi_r2_v1.2.,2013-07-06 04:48:00,
2013-07-06 00:53:00,78.1,73.2,30.06,SW,233,10.0,12.0,85,0.00,,,0.00,0,HR-IXPWINDi_r2_v1.2.,2013-07-06 04:53:00,
2013-07-06 00:58:00,78.0,72.7,30.05,SW,223,10.0,12.0,84,0.00,,,0.00,0,HR-IXPWINDi_r2_v1.2.,2013-07-06 04:58:00,
2013-07-06 01:03:00,77.6,72.3,30.06,WSW,238,8.0,12.0,84,0.00,,,0.00,0,HR-IXPWINDi_r2_v1.2.,2013-07-06 05:03:00,
2013-07-06 01:09:00,77.9,73.0,30.06,SSW,194,7.0,14.0,85,0.00,,,0.00,0,HR-IXPWINDi_r2_v1.2.,2013-07-06 05:09:00,
2013-07-06 01:14:00,78.0,73.1,30.06,WSW,244,7.0,14.0,85,0.00,,,0.00,0,HR-IXPWINDi_r2_v1.2.,2013-07-06 05:14:00,
2013-07-06 01:19:00,78.3,73.4,30.06,SW,217,9.0,11.0,85,0.00,,,0.00,0,HR-IXPWINDi_r2_v1.2.,2013-07-06 05:19:00,
2013-07-06 01:24:00,78.0,72.7,30.06,SW,215,9.0,11.0,84,0.00,,,0.00,0,HR-IXPWINDi_r2_v1.2.,2013-07-06 05:24:00,
2013-07-06 01:29:00,77.5,72.6,30.06,SW,216,7.0,11.0,85,0.00,,,0.00,0,HR-IXPWINDi_r2_v1.2.,2013-07-06 05:29:00,
2013-07-06 01:34:00,76.4,71.5,30.06,SW,223,8.0,10.0,85,0.00,,,0.00,0,HR-IXPWINDi_r2_v1.2.,2013-07-06 05:34:00,
2013-07-06 01:39:00,75.4,71.2,30.05,SW,223,7.0,10.0,87,0.00,,,0.00,0,HR-IXPWINDi_r2_v1.2.,2013-07-06 05:39:00,
2013-07-06 01:44:00,74.7,70.5,30.06,SW,221,8.0,10.0,87,0.00,,,0.00,0,HR-IXPWINDi_r2_v1.2.,2013-07-06 05:44:00,
2013-07-06 01:50:00,74.6,70.8,30.06,SW,221,5.0,9.0,88,0.00,,,0.00,0,HR-IXPWINDi_r2_v1.2.,2013-07-06 05:50:00,
2013-07-06 01:55:00,74.4,70.9,30.05,SW,225,7.0,9.0,89,0.00,,,0.00,0,HR-IXPWINDi_r2_v1.2.,2013-07-06 05:55:00,
2013-07-06 02:00:00,74.4,70.9,30.05,SSW,199,4.0,9.0,89,0.00,,,0.00,0,HR-IXPWINDi_r2_v1.2.,2013-07-06 06:00:00,
2013-07-06 02:05:00,74.0,70.5,30.05,SSW,206,5.0,8.0,89,0.00,,,0.00,0,HR-IXPWINDi_r2_v1.2.,2013-07-06 06:05:00,
2013-07-06 02:10:00,73.8,70.3,30.05,SW,227,5.0,7.0,89,0.00,,,0.00,0,HR-IXPWINDi_r2_v1.2.,2013-07-06 06:10:00,
2013-07-06 02:16:00,73.7,70.5,30.05,SW,223,3.0,7.0,90,0.00,,,0.00,0,HR-IXPWINDi_r2_v1.2.,2013-07-06 06:16:00,
2013-07-06 02:21:00,73.8,70.6,30.05,SSW,212,2.0,8.0,90,0.00,,,0.00,0,HR-IXPWINDi_r2_v1.2.,2013-07-06 06:21:00,
2013-07-06 02:26:00,74.2,71.0,30.05,SW,222,1.0,8.0,90,0.00,,,0.00,0,HR-IXPWINDi_r2_v1.2.,2013-07-06 06:26:00,
2013-07-06 02:31:00,74.3,70.8,30.05,SW,229,4.0,8.0,89,0.00,,,0.00,0,HR-IXPWINDi_r2_v1.2.,2013-07-06 06:31:00,
2013-07-06 02:36:00,74.3,70.8,30.05,SSW,212,3.0,6.0,89,0.00,,,0.00,0,HR-IXPWINDi_r2_v1.2.,2013-07-06 06:36:00,
2013-07-06 02:41:00,73.9,70.4,30.05,SW,216,4.0,7.0,89,0.00,,,0.00,0,HR-IXPWINDi_r2_v1.2.,2013-07-06 06:41:00,
2013-07-06 02:46:00,73.9,70.7,30.05,SW,217,6.0,7.0,90,0.00,,,0.00,0,HR-IXPWINDi_r2_v1.2.,2013-07-06 06:46:00,
2013-07-06 02:51:00,73.7,70.2,30.05,SW,219,5.0,7.0,89,0.00,,,0.00,0,HR-IXPWINDi_r2_v1.2.,2013-07-06 06:51:00,
2013-07-06 02:57:00,73.6,70.4,30.05,SW,217,3.0,7.0,90,0.00,,,0.00,0,HR-IXPWINDi_r2_v1.2.,2013-07-06 06:57:00,
2013-07-06 03:02:00,73.4,70.2,30.05,SW,216,5.0,6.0,90,0.00,,,0.00,0,HR-IXPWINDi_r2_v1.2.,2013-07-06 07:02:00,
2013-07-06 03:07:00,73.4,70.2,30.05,SW,225,5.0,7.0,90,0.00,,,0.00,0,HR-IXPWINDi_r2_v1.2.,2013-07-06 07:07:00,
2013-07-06 03:12:00,73.1,69.9,30.05,WSW,238,5.0,7.0,90,0.00,,,0.00,0,HR-IXPWINDi_r2_v1.2.,2013-07-06 07:12:00,
2013-07-06 03:17:00,73.5,70.7,30.05,SW,217,4.0,6.0,91,0.00,,,0.00,0,HR-IXPWINDi_r2_v1.2.,2013-07-06 07:17:00,
2013-07-06 03:22:00,73.8,70.9,30.05,SW,233,4.0,5.0,91,0.00,,,0.00,0,HR-IXPWINDi_r2_v1.2.,2013-07-06 07:22:00,
2013-07-06 03:28:00,73.6,70.7,30.05,SW,224,5.0,5.0,91,0.00,,,0.00,0,HR-IXPWINDi_r2_v1.2.,2013-07-06 07:28:00,
2013-07-06 03:33:00,73.7,70.8,30.05,WSW,238,5.0,6.0,91,0.00,,,0.00,0,HR-IXPWINDi_r2_v1.2.,2013-07-06 07:33:00,
2013-07-06 03:38:00,73.6,70.4,30.05,SSW,213,5.0,7.0,90,0.00,,,0.00,0,HR-IXPWINDi_r2_v1.2.,2013-07-06 07:38:00,
2013-07-06 03:43:00,73.0,69.8,30.05,SW,224,5.0,7.0,90,0.00,,,0.00,0,HR-IXPWINDi_r2_v1.2.,2013-07-06 07:43:00,
2013-07-06 03:48:00,73.1,70.3,30.05,SW,219,5.0,8.0,91,0.00,,,0.00,0,HR-IXPWINDi_r2_v1.2.,2013-07-06 07:48:00,
2013-07-06 03:53:00,73.3,70.5,30.05,SW,234,6.0,8.0,91,0.00,,,0.00,0,HR-IXPWINDi_r2_v1.2.,2013-07-06 07:53:00,
2013-07-06 03:58:00,73.5,70.7,30.05,SW,229,5.0,8.0,91,0.00,,,0.00,0,HR-IXPWINDi_r2_v1.2.,2013-07-06 07:58:00,
2013-07-06 04:04:00,73.7,70.8,30.05,SW,216,5.0,6.0,91,0.00,,,0.00,0,HR-IXPWINDi_r2_v1.2.,2013-07-06 08:04:00,
2013-07-06 04:09:00,73.9,70.7,30.05,WSW,244,5.0,6.0,90,0.00,,,0.00,0,HR-IXPWINDi_r2_v1.2.,2013-07-06 08:09:00,
2013-07-06 04:14:00,73.9,70.7,30.04,SW,217,4.0,6.0,90,0.00,,,0.00,0,HR-IXPWINDi_r2_v1.2.,2013-07-06 08:14:00,
2013-07-06 04:19:00,73.6,70.4,30.05,SW,232,4.0,6.0,90,0.00,,,0.00,0,HR-IXPWINDi_r2_v1.2.,2013-07-06 08:19:00,
2013-07-06 04:24:00,73.6,70.7,30.05,SW,223,4.0,6.0,91,0.00,,,0.00,0,HR-IXPWINDi_r2_v1.2.,2013-07-06 08:24:00,
2013-07-06 04:29:00,73.4,70.6,30.05,SW,221,6.0,7.0,91,0.00,,,0.00,0,HR-IXPWINDi_r2_v1.2.,2013-07-06 08:29:00,
2013-07-06 04:35:00,73.7,70.8,30.05,SW,228,5.0,7.0,91,0.00,,,0.00,0,HR-IXPWINDi_r2_v1.2.,2013-07-06 08:35:00,
2013-07-06 04:40:00,73.9,71.0,30.05,SSW,210,5.0,7.0,91,0.00,,,0.00,0,HR-IXPWINDi_r2_v1.2.,2013-07-06 08:40:00,
2013-07-06 04:45:00,74.1,70.9,30.05,SW,221,4.0,7.0,90,0.00,,,0.00,0,HR-IXPWINDi_r2_v1.2.,2013-07-06 08:45:00,
2013-07-06 04:50:00,74.3,71.1,30.05,SW,216,5.0,7.0,90,0.00,,,0.00,0,HR-IXPWINDi_r2_v1.2.,2013-07-06 08:50:00,
2013-07-06 04:55:00,74.2,71.0,30.05,WSW,239,4.0,7.0,90,0.00,,,0.00,0,HR-IXPWINDi_r2_v1.2.,2013-07-06 08:55:00,
2013-07-06 05:00:00,74.1,70.9,30.05,SW,217,5.0,6.0,90,0.00,,,0.00,0,HR-IXPWINDi_r2_v1.2.,2013-07-06 09:00:00,
2013-07-06 05:06:00,74.0,71.1,30.05,SW,227,3.0,6.0,91,0.00,,,0.00,0,HR-IXPWINDi_r2_v1.2.,2013-07-06 09:06:00,
2013-07-06 05:11:00,74.3,71.4,30.05,SW,231,4.0,5.0,91,0.00,,,0.00,0,HR-IXPWINDi_r2_v1.2.,2013-07-06 09:11:00,
2013-07-06 05:16:00,74.7,71.8,30.05,SSW,213,4.0,6.0,91,0.00,,,0.00,0,HR-IXPWINDi_r2_v1.2.,2013-07-06 09:16:00,
2013-07-06 05:22:00,74.6,71.4,30.05,SW,225,5.0,6.0,90,0.00,,,0.00,5,HR-IXPWINDi_r2_v1.2.,2013-07-06 09:22:00,
2013-07-06 05:27:00,73.9,70.4,30.05,SW,222,5.0,6.0,89,0.00,,,0.00,7,HR-IXPWINDi_r2_v1.2.,2013-07-06 09:27:00,
2013-07-06 05:32:00,73.3,70.1,30.05,SW,227,3.0,5.0,90,0.00,,,0.00,12,HR-IXPWINDi_r2_v1.2.,2013-07-06 09:32:00,
2013-07-06 05:37:00,73.3,70.5,30.05,SW,227,3.0,5.0,91,0.00,,,0.00,16,HR-IXPWINDi_r2_v1.2.,2013-07-06 09:37:00,
2013-07-06 05:42:00,73.4,70.6,30.05,WSW,238,4.0,5.0,91,0.00,,,0.00,18,HR-IXPWINDi_r2_v1.2.,2013-07-06 09:42:00,
2013-07-06 05:47:00,74.2,71.7,30.06,WSW,248,1.0,5.0,92,0.00,,,0.00,19,HR-IXPWINDi_r2_v1.2.,2013-07-06 09:47:00,
2013-07-06 05:52:00,75.2,72.3,30.05,SW,235,1.0,6.0,91,0.00,,,0.00,23,HR-IXPWINDi_r2_v1.2.,2013-07-06 09:52:00,
2013-07-06 05:58:00,75.7,72.2,30.06,WSW,242,3.0,6.0,89,0.00,,,0.00,28,HR-IXPWINDi_r2_v1.2.,2013-07-06 09:58:00,
2013-07-06 06:03:00,76.0,72.1,30.06,WSW,240,2.0,6.0,88,0.00,,,0.00,35,HR-IXPWINDi_r2_v1.2.,2013-07-06 10:03:00,
2013-07-06 06:08:00,75.6,71.4,30.06,WSW,241,5.0,6.0,87,0.00,,,0.00,46,HR-IXPWINDi_r2_v1.2.,2013-07-06 10:08:00,
2013-07-06 06:13:00,75.4,71.5,30.05,SW,232,2.0,5.0,88,0.00,,,0.00,58,HR-IXPWINDi_r2_v1.2.,2013-07-06 10:13:00,
2013-07-06 06:18:00,75.0,71.1,30.06,SW,229,4.0,5.0,88,0.00,,,0.00,76,HR-IXPWINDi_r2_v1.2.,2013-07-06 10:18:00,
2013-07-06 06:23:00,74.9,71.4,30.05,WSW,237,2.0,5.0,89,0.00,,,0.00,88,HR-IXPWINDi_r2_v1.2.,2013-07-06 10:23:00,
2013-07-06 06:28:00,75.2,71.7,30.06,WSW,240,1.0,5.0,89,0.00,,,0.00,98,HR-IXPWINDi_r2_v1.2.,2013-07-06 10:28:00,
2013-07-06 06:34:00,76.1,72.2,30.06,West,273,3.0,6.0,88,0.00,,,0.00,111,HR-IXPWINDi_r2_v1.2.,2013-07-06 10:34:00,
2013-07-06 06:40:00,76.5,71.9,30.06,WSW,248,3.0,6.0,86,0.00,,,0.00,123,HR-IXPWINDi_r2_v1.2.,2013-07-06 10:40:00,
2013-07-06 06:45:00,76.5,71.6,30.06,SW,222,7.0,7.0,85,0.00,,,0.00,139,HR-IXPWINDi_r2_v1.2.,2013-07-06 10:45:00,
2013-07-06 06:50:00,76.3,71.4,30.06,WSW,238,5.0,7.0,85,0.00,,,0.00,162,HR-IXPWINDi_r2_v1.2.,2013-07-06 10:50:00,
2013-07-06 06:55:00,76.6,71.7,30.06,SW,220,5.0,9.0,85,0.00,,,0.00,183,HR-IXPWINDi_r2_v1.2.,2013-07-06 10:55:00,
2013-07-06 07:01:00,76.9,72.0,30.06,SSW,194,5.0,9.0,85,0.00,,,0.00,214,HR-IXPWINDi_r2_v1.2.,2013-07-06 11:01:00,
2013-07-06 07:06:00,76.7,71.4,30.06,SW,234,7.0,9.0,84,0.00,,,0.00,234,HR-IXPWINDi_r2_v1.2.,2013-07-06 11:06:00,
2013-07-06 07:11:00,76.2,71.0,30.06,SW,234,3.0,8.0,84,0.00,,,0.00,248,HR-IXPWINDi_r2_v1.2.,2013-07-06 11:11:00,
2013-07-06 07:16:00,76.7,71.8,30.06,SW,216,6.0,7.0,85,0.00,,,0.00,258,HR-IXPWINDi_r2_v1.2.,2013-07-06 11:16:00,
2013-07-06 07:21:00,77.3,72.0,30.06,WSW,245,5.0,9.0,84,0.00,,,0.00,274,HR-IXPWINDi_r2_v1.2.,2013-07-06 11:21:00,
2013-07-06 07:26:00,78.9,73.2,30.06,SSW,211,5.0,9.0,83,0.00,,,0.00,288,HR-IXPWINDi_r2_v1.2.,2013-07-06 11:26:00,
2013-07-06 07:32:00,79.8,73.0,30.06,SW,236,6.0,11.0,80,0.00,,,0.00,304,HR-IXPWINDi_r2_v1.2.,2013-07-06 11:32:00,
2013-07-06 07:37:00,80.3,73.1,30.06,WSW,245,4.0,11.0,79,0.00,,,0.00,315,HR-IXPWINDi_r2_v1.2.,2013-07-06 11:37:00,
2013-07-06 07:42:00,80.5,73.0,30.06,West,278,3.0,9.0,78,0.00,,,0.00,334,HR-IXPWINDi_r2_v1.2.,2013-07-06 11:42:00,
2013-07-06 07:47:00,80.7,73.1,30.05,West,268,3.0,11.0,78,0.00,,,0.00,352,HR-IXPWINDi_r2_v1.2.,2013-07-06 11:47:00,
2013-07-06 07:52:00,81.0,73.4,30.06,SW,234,5.0,11.0,78,0.00,,,0.00,374,HR-IXPWINDi_r2_v1.2.,2013-07-06 11:52:00,
2013-07-06 07:58:00,81.2,73.3,30.06,SW,221,3.0,9.0,77,0.00,,,0.00,387,HR-IXPWINDi_r2_v1.2.,2013-07-06 11:58:00,
2013-07-06 08:03:00,81.5,73.2,30.06,SW,236,5.0,8.0,76,0.00,,,0.00,406,HR-IXPWINDi_r2_v1.2.,2013-07-06 12:03:00,
2013-07-06 08:08:00,81.8,73.0,30.06,SW,229,7.0,12.0,75,0.00,,,0.00,406,HR-IXPWINDi_r2_v1.2.,2013-07-06 12:08:00,
2013-07-06 08:13:00,82.2,73.0,30.06,SW,229,6.0,13.0,74,0.00,,,0.00,425,HR-IXPWINDi_r2_v1.2.,2013-07-06 12:13:00,
2013-07-06 08:19:00,82.2,73.0,30.06,West,267,10.0,13.0,74,0.00,,,0.00,454,HR-IXPWINDi_r2_v1.2.,2013-07-06 12:19:00,
2013-07-06 08:24:00,82.4,72.8,30.06,WSW,241,6.0,11.0,73,0.00,,,0.00,432,HR-IXPWINDi_r2_v1.2.,2013-07-06 12:24:00,
2013-07-06 08:29:00,82.7,72.7,30.06,SW,232,6.0,11.0,72,0.00,,,0.00,434,HR-IXPWINDi_r2_v1.2.,2013-07-06 12:29:00,
2013-07-06 08:34:00,83.1,73.1,30.06,WSW,257,3.0,11.0,72,0.00,,,0.00,455,HR-IXPWINDi_r2_v1.2.,2013-07-06 12:34:00,
2013-07-06 08:39:00,83.2,73.2,30.06,West,259,6.0,10.0,72,0.00,,,0.00,480,HR-IXPWINDi_r2_v1.2.,2013-07-06 12:39:00,
2013-07-06 08:45:00,83.4,73.0,30.06,SW,228,3.0,12.0,71,0.00,,,0.00,487,HR-IXPWINDi_r2_v1.2.,2013-07-06 12:45:00,
2013-07-06 08:50:00,83.5,73.1,30.05,WNW,303,2.0,15.0,71,0.00,,,0.00,506,HR-IXPWINDi_r2_v1.2.,2013-07-06 12:50:00,
2013-07-06 08:55:00,83.8,72.9,30.05,SW,233,5.0,15.0,70,0.00,,,0.00,540,HR-IXPWINDi_r2_v1.2.,2013-07-06 12:55:00,
2013-07-06 09:01:00,83.9,73.0,30.05,SW,234,3.0,13.0,70,0.00,,,0.00,559,HR-IXPWINDi_r2_v1.2.,2013-07-06 13:01:00,
2013-07-06 09:06:00,84.1,73.2,30.05,West,262,7.0,13.0,70,0.00,,,0.00,577,HR-IXPWINDi_r2_v1.2.,2013-07-06 13:06:00,
2013-07-06 09:11:00,84.3,73.4,30.04,SW,222,2.0,15.0,70,0.00,,,0.00,557,HR-IXPWINDi_r2_v1.2.,2013-07-06 13:11:00,
2013-07-06 09:16:00,84.4,73.1,30.04,WSW,246,8.0,15.0,69,0.00,,,0.00,538,HR-IXPWINDi_r2_v1.2.,2013-07-06 13:16:00,
2013-07-06 09:22:00,84.3,73.0,30.04,WNW,293,3.0,11.0,69,0.00,,,0.00,552,HR-IXPWINDi_r2_v1.2.,2013-07-06 13:22:00,
2013-07-06 09:27:00,84.4,72.6,30.04,WSW,252,7.0,12.0,68,0.00,,,0.00,561,HR-IXPWINDi_r2_v1.2.,2013-07-06 13:27:00,
2013-07-06 09:32:00,84.3,73.0,30.04,SSW,213,7.0,14.0,69,0.00,,,0.00,575,HR-IXPWINDi_r2_v1.2.,2013-07-06 13:32:00,
2013-07-06 09:37:00,84.4,72.6,30.04,WSW,252,13.0,14.0,68,0.00,,,0.00,621,HR-IXPWINDi_r2_v1.2.,2013-07-06 13:37:00,
2013-07-06 09:42:00,84.8,72.6,30.03,West,279,6.0,13.0,67,0.00,,,0.00,605,HR-IXPWINDi_r2_v1.2.,2013-07-06 13:42:00,
2013-07-06 09:47:00,85.1,72.9,30.03,NNE,13,4.0,13.0,67,0.00,,,0.00,675,HR-IXPWINDi_r2_v1.2.,2013-07-06 13:47:00,
2013-07-06 09:53:00,85.5,72.3,30.03,WNW,282,9.0,17.0,65,0.00,,,0.00,675,HR-IXPWINDi_r2_v1.2.,2013-07-06 13:53:00,
2013-07-06 09:58:00,85.7,72.5,30.03,West,281,10.0,17.0,65,0.00,,,0.00,636,HR-IXPWINDi_r2_v1.2.,2013-07-06 13:58:00,
2013-07-06 10:03:00,85.7,72.5,30.03,SW,229,6.0,14.0,65,0.00,,,0.00,710,HR-IXPWINDi_r2_v1.2.,2013-07-06 14:03:00,
2013-07-06 10:08:00,85.8,72.2,30.03,NW,321,4.0,14.0,64,0.00,,,0.00,684,HR-IXPWINDi_r2_v1.2.,2013-07-06 14:08:00,
2013-07-06 10:13:00,86.1,72.0,30.03,NW,317,6.0,15.0,63,0.00,,,0.00,691,HR-IXPWINDi_r2_v1.2.,2013-07-06 14:13:00,
2013-07-06 10:19:00,86.5,72.4,30.03,WNW,292,6.0,15.0,63,0.00,,,0.00,707,HR-IXPWINDi_r2_v1.2.,2013-07-06 14:19:00,
2013-07-06 10:24:00,86.7,71.6,30.03,SW,234,8.0,13.0,61,0.00,,,0.00,684,HR-IXPWINDi_r2_v1.2.,2013-07-06 14:24:00,
2013-07-06 10:29:00,86.8,72.6,30.03,West,265,3.0,13.0,63,0.00,,,0.00,708,HR-IXPWINDi_r2_v1.2.,2013-07-06 14:29:00,
2013-07-06 10:34:00,86.8,71.2,30.03,West,261,16.0,16.0,60,0.00,,,0.00,621,HR-IXPWINDi_r2_v1.2.,2013-07-06 14:34:00,
2013-07-06 10:40:00,86.8,71.2,30.03,NW,313,5.0,16.0,60,0.00,,,0.00,738,HR-IXPWINDi_r2_v1.2.,2013-07-06 14:40:00,
2013-07-06 10:45:00,87.6,71.5,30.02,WNW,289,11.0,16.0,59,0.00,,,0.00,758,HR-IXPWINDi_r2_v1.2.,2013-07-06 14:45:00,
2013-07-06 10:50:00,87.9,71.7,30.03,West,269,8.0,15.0,59,0.00,,,0.00,754,HR-IXPWINDi_r2_v1.2.,2013-07-06 14:50:00,
2013-07-06 10:55:00,88.2,71.5,30.03,WNW,283,6.0,14.0,58,0.00,,,0.00,759,HR-IXPWINDi_r2_v1.2.,2013-07-06 14:55:00,
2013-07-06 11:00:00,88.0,71.3,30.03,West,276,10.0,12.0,58,0.00,,,0.00,758,HR-IXPWINDi_r2_v1.2.,2013-07-06 15:00:00,
2013-07-06 11:06:00,88.0,71.3,30.03,WNW,293,10.0,14.0,58,0.00,,,0.00,809,HR-IXPWINDi_r2_v1.2.,2013-07-06 15:06:00,
2013-07-06 11:11:00,88.1,71.9,30.02,NNW,339,5.0,15.0,59,0.00,,,0.00,800,HR-IXPWINDi_r2_v1.2.,2013-07-06 15:11:00,
2013-07-06 11:16:00,88.4,71.2,30.03,WSW,250,7.0,15.0,57,0.00,,,0.00,823,HR-IXPWINDi_r2_v1.2.,2013-07-06 15:16:00,
2013-07-06 11:21:00,88.1,71.4,30.03,West,275,5.0,17.0,58,0.00,,,0.00,817,HR-IXPWINDi_r2_v1.2.,2013-07-06 15:21:00,
2013-07-06 11:26:00,88.1,71.4,30.02,WNW,293,8.0,17.0,58,0.00,,,0.00,872,HR-IXPWINDi_r2_v1.2.,2013-07-06 15:26:00,
2013-07-06 11:32:00,88.5,71.3,30.02,SW,218,14.0,18.0,57,0.00,,,0.00,895,HR-IXPWINDi_r2_v1.2.,2013-07-06 15:32:00,
2013-07-06 11:37:00,88.1,70.4,30.02,SW,230,13.0,18.0,56,0.00,,,0.00,918,HR-IXPWINDi_r2_v1.2.,2013-07-06 15:37:00,
2013-07-06 11:42:00,88.0,70.8,30.02,WSW,257,10.0,20.0,57,0.00,,,0.00,211,HR-IXPWINDi_r2_v1.2.,2013-07-06 15:42:00,
2013-07-06 11:48:00,88.1,71.4,30.03,SW,236,11.0,20.0,58,0.00,,,0.00,930,HR-IXPWINDi_r2_v1.2.,2013-07-06 15:48:00,
2013-07-06 11:53:00,88.2,71.5,30.02,WSW,247,3.0,15.0,58,0.00,,,0.00,918,HR-IXPWINDi_r2_v1.2.,2013-07-06 15:53:00,
2013-07-06 11:58:00,88.4,71.7,30.02,SW,227,14.0,14.0,58,0.00,,,0.00,932,HR-IXPWINDi_r2_v1.2.,2013-07-06 15:58:00,
2013-07-06 12:03:00,88.6,70.3,30.02,West,259,7.0,21.0,55,0.00,,,0.00,236,HR-IXPWINDi_r2_v1.2.,2013-07-06 16:03:00,
2013-07-06 12:08:00,88.6,70.9,30.02,West,266,9.0,21.0,56,0.00,,,0.00,958,HR-IXPWINDi_r2_v1.2.,2013-07-06 16:08:00,
2013-07-06 12:14:00,89.1,71.8,30.02,WNW,298,5.0,12.0,57,0.00,,,0.00,925,HR-IXPWINDi_r2_v1.2.,2013-07-06 16:14:00,
2013-07-06 12:19:00,88.9,70.6,30.02,West,274,6.0,16.0,55,0.00,,,0.00,225,HR-IXPWINDi_r2_v1.2.,2013-07-06 16:19:00,
2013-07-06 12:24:00,88.9,71.1,30.02,SW,215,6.0,16.0,56,0.00,,,0.00,236,HR-IXPWINDi_r2_v1.2.,2013-07-06 16:24:00,
2013-07-06 12:29:00,88.6,70.9,30.02,SW,231,6.0,16.0,56,0.00,,,0.00,200,HR-IXPWINDi_r2_v1.2.,2013-07-06 16:29:00,
2013-07-06 12:34:00,88.5,71.3,30.01,WNW,288,9.0,16.0,57,0.00,,,0.00,297,HR-IXPWINDi_r2_v1.2.,2013-07-06 16:34:00,
2013-07-06 12:39:00,89.2,70.9,30.01,WSW,257,6.0,17.0,55,0.00,,,0.00,202,HR-IXPWINDi_r2_v1.2.,2013-07-06 16:39:00,
2013-07-06 12:45:00,89.4,71.6,30.01,West,259,3.0,17.0,56,0.00,,,0.00,304,HR-IXPWINDi_r2_v1.2.,2013-07-06 16:45:00,
2013-07-06 12:50:00,89.6,71.3,30.01,WNW,288,13.0,15.0,55,0.00,,,0.00,272,HR-IXPWINDi_r2_v1.2.,2013-07-06 16:50:00,
2013-07-06 12:55:00,89.8,71.4,30.01,WSW,257,7.0,15.0,55,0.00,,,0.00,1042,HR-IXPWINDi_r2_v1.2.,2013-07-06 16:55:00,
2013-07-06 13:00:00,90.2,71.3,30.01,SW,236,11.0,17.0,54,0.00,,,0.00,457,HR-IXPWINDi_r2_v1.2.,2013-07-06 17:00:00,
2013-07-06 13:05:00,89.4,71.1,30.01,WSW,257,9.0,17.0,55,0.00,,,0.00,227,HR-IXPWINDi_r2_v1.2.,2013-07-06 17:05:00,
2013-07-06 13:11:00,89.0,71.8,30.01,NW,306,4.0,16.0,57,0.00,,,0.00,923,HR-IXPWINDi_r2_v1.2.,2013-07-06 17:11:00,
2013-07-06 13:16:00,89.8,71.4,30.00,West,268,7.0,12.0,55,0.00,,,0.00,965,HR-IXPWINDi_r2_v1.2.,2013-07-06 17:16:00,
2013-07-06 13:21:00,90.4,70.3,30.00,SW,220,13.0,15.0,52,0.00,,,0.00,960,HR-IXPWINDi_r2_v1.2.,2013-07-06 17:21:00,
2013-07-06 13:26:00,90.1,71.2,30.00,WNW,283,9.0,17.0,54,0.00,,,0.00,937,HR-IXPWINDi_r2_v1.2.,2013-07-06 17:26:00,
2013-07-06 13:31:00,90.2,71.3,30.00,West,273,8.0,17.0,54,0.00,,,0.00,918,HR-IXPWINDi_r2_v1.2.,2013-07-06 17:31:00,
2013-07-06 13:36:00,90.0,71.1,30.00,West,259,6.0,13.0,54,0.00,,,0.00,193,HR-IXPWINDi_r2_v1.2.,2013-07-06 17:36:00,
2013-07-06 13:42:00,90.1,71.7,30.00,SW,227,10.0,13.0,55,0.00,,,0.00,288,HR-IXPWINDi_r2_v1.2.,2013-07-06 17:42:00,
2013-07-06 13:47:00,89.4,71.1,30.00,West,276,6.0,13.0,55,0.00,,,0.00,211,HR-IXPWINDi_r2_v1.2.,2013-07-06 17:47:00,
2013-07-06 13:52:00,89.2,71.4,30.01,WSW,250,6.0,14.0,56,0.00,,,0.00,933,HR-IXPWINDi_r2_v1.2.,2013-07-06 17:52:00,
2013-07-06 13:57:00,90.3,71.9,30.01,WNW,284,10.0,15.0,55,0.00,,,0.00,898,HR-IXPWINDi_r2_v1.2.,2013-07-06 17:57:00,
2013-07-06 14:03:00,90.6,71.6,30.00,South,173,9.0,15.0,54,0.00,,,0.00,875,HR-IXPWINDi_r2_v1.2.,2013-07-06 18:03:00,
2013-07-06 14:08:00,90.2,70.7,30.00,NW,309,7.0,15.0,53,0.00,,,0.00,341,HR-IXPWINDi_r2_v1.2.,2013-07-06 18:08:00,
2013-07-06 14:13:00,90.1,71.7,30.00,WNW,284,9.0,15.0,55,0.00,,,0.00,200,HR-IXPWINDi_r2_v1.2.,2013-07-06 18:13:00,
2013-07-06 14:18:00,89.5,71.7,30.00,West,273,1.0,15.0,56,0.00,,,0.00,186,HR-IXPWINDi_r2_v1.2.,2013-07-06 18:18:00,
2013-07-06 14:23:00,89.7,71.9,30.00,WNW,292,5.0,14.0,56,0.00,,,0.00,248,HR-IXPWINDi_r2_v1.2.,2013-07-06 18:23:00,
2013-07-06 14:29:00,89.3,71.0,30.00,West,263,3.0,15.0,55,0.00,,,0.00,195,HR-IXPWINDi_r2_v1.2.,2013-07-06 18:29:00,
2013-07-06 14:34:00,88.9,71.1,30.00,NW,321,9.0,15.0,56,0.00,,,0.00,144,HR-IXPWINDi_r2_v1.2.,2013-07-06 18:34:00,
2013-07-06 14:39:00,88.6,71.4,30.00,WNW,285,2.0,14.0,57,0.00,,,0.00,174,HR-IXPWINDi_r2_v1.2.,2013-07-06 18:39:00,
2013-07-06 14:44:00,88.7,70.9,30.00,WSW,246,4.0,14.0,56,0.00,,,0.00,851,HR-IXPWINDi_r2_v1.2.,2013-07-06 18:44:00,
2013-07-06 14:49:00,89.7,71.3,30.00,WNW,288,8.0,16.0,55,0.00,,,0.00,826,HR-IXPWINDi_r2_v1.2.,2013-07-06 18:49:00,
2013-07-06 14:54:00,90.2,70.7,30.00,NW,324,8.0,16.0,53,0.00,,,0.00,821,HR-IXPWINDi_r2_v1.2.,2013-07-06 18:54:00,
2013-07-06 14:59:00,90.5,70.4,30.00,WNW,284,6.0,18.0,52,0.00,,,0.00,824,HR-IXPWINDi_r2_v1.2.,2013-07-06 18:59:00,
2013-07-06 15:05:00,91.0,70.9,30.00,NNW,330,7.0,18.0,52,0.00,,,0.00,766,HR-IXPWINDi_r2_v1.2.,2013-07-06 19:05:00,
2013-07-06 15:10:00,91.4,70.1,30.00,West,270,9.0,14.0,50,0.00,,,0.00,840,HR-IXPWINDi_r2_v1.2.,2013-07-06 19:10:00,
2013-07-06 15:15:00,90.9,69.7,30.00,WNW,291,6.0,18.0,50,0.00,,,0.00,239,HR-IXPWINDi_r2_v1.2.,2013-07-06 19:15:00,
2013-07-06 15:20:00,90.9,69.1,29.99,West,279,7.0,18.0,49,0.00,,,0.00,780,HR-IXPWINDi_r2_v1.2.,2013-07-06 19:20:00,
2013-07-06 15:25:00,91.0,69.2,29.99,WNW,289,15.0,18.0,49,0.00,,,0.00,738,HR-IXPWINDi_r2_v1.2.,2013-07-06 19:25:00,
2013-07-06 15:31:00,90.9,68.5,30.00,West,267,8.0,18.0,48,0.00,,,0.00,749,HR-IXPWINDi_r2_v1.2.,2013-07-06 19:31:00,
2013-07-06 15:36:00,90.7,68.3,30.00,WSW,257,12.0,17.0,48,0.00,,,0.00,220,HR-IXPWINDi_r2_v1.2.,2013-07-06 19:36:00,
2013-07-06 15:41:00,90.4,67.4,29.99,West,269,12.0,19.0,47,0.00,,,0.00,740,HR-IXPWINDi_r2_v1.2.,2013-07-06 19:41:00,
2013-07-06 15:47:00,90.7,67.7,29.99,NW,323,8.0,19.0,47,0.00,,,0.00,701,HR-IXPWINDi_r2_v1.2.,2013-07-06 19:47:00,
2013-07-06 15:52:00,91.4,67.7,29.99,NW,318,6.0,19.0,46,0.00,,,0.00,668,HR-IXPWINDi_r2_v1.2.,2013-07-06 19:52:00,
2013-07-06 15:57:00,91.4,67.7,29.99,West,269,13.0,20.0,46,0.00,,,0.00,534,HR-IXPWINDi_r2_v1.2.,2013-07-06 19:57:00,
2013-07-06 16:03:00,91.1,67.4,29.98,West,267,4.0,20.0,46,0.00,,,0.00,650,HR-IXPWINDi_r2_v1.2.,2013-07-06 20:03:00,
2013-07-06 16:08:00,91.2,68.1,29.98,WSW,257,12.0,19.0,47,0.00,,,0.00,642,HR-IXPWINDi_r2_v1.2.,2013-07-06 20:08:00,
2013-07-06 16:13:00,91.2,68.1,29.98,West,278,15.0,19.0,47,0.00,,,0.00,628,HR-IXPWINDi_r2_v1.2.,2013-07-06 20:13:00,
2013-07-06 16:18:00,91.1,68.0,29.98,West,269,9.0,19.0,47,0.00,,,0.00,599,HR-IXPWINDi_r2_v1.2.,2013-07-06 20:18:00,
2013-07-06 16:23:00,91.1,68.6,29.98,West,270,8.0,17.0,48,0.00,,,0.00,606,HR-IXPWINDi_r2_v1.2.,2013-07-06 20:23:00,
2013-07-06 16:29:00,91.6,69.1,29.97,North,355,1.0,15.0,48,0.00,,,0.00,584,HR-IXPWINDi_r2_v1.2.,2013-07-06 20:29:00,
2013-07-06 16:34:00,91.3,68.8,29.97,WSW,241,17.0,18.0,48,0.00,,,0.00,543,HR-IXPWINDi_r2_v1.2.,2013-07-06 20:34:00,
2013-07-06 16:39:00,91.0,69.2,29.98,WNW,284,13.0,18.0,49,0.00,,,0.00,534,HR-IXPWINDi_r2_v1.2.,2013-07-06 20:39:00,
2013-07-06 16:44:00,90.9,69.1,29.97,NW,317,10.0,18.0,49,0.00,,,0.00,554,HR-IXPWINDi_r2_v1.2.,2013-07-06 20:44:00,
2013-07-06 16:49:00,90.9,69.1,29.97,WNW,301,6.0,16.0,49,0.00,,,0.00,504,HR-IXPWINDi_r2_v1.2.,2013-07-06 20:49:00,
2013-07-06 16:54:00,90.6,68.8,29.97,South,180,10.0,15.0,49,0.00,,,0.00,526,HR-IXPWINDi_r2_v1.2.,2013-07-06 20:54:00,
2013-07-06 17:00:00,91.0,68.6,29.97,West,276,13.0,17.0,48,0.00,,,0.00,489,HR-IXPWINDi_r2_v1.2.,2013-07-06 21:00:00,
2013-07-06 17:05:00,90.8,68.4,29.97,West,270,9.0,17.0,48,0.00,,,0.00,441,HR-IXPWINDi_r2_v1.2.,2013-07-06 21:05:00,
2013-07-06 17:10:00,90.6,68.2,29.96,WSW,243,7.0,16.0,48,0.00,,,0.00,476,HR-IXPWINDi_r2_v1.2.,2013-07-06 21:10:00,
2013-07-06 17:15:00,90.9,69.1,29.96,West,269,5.0,16.0,49,0.00,,,0.00,387,HR-IXPWINDi_r2_v1.2.,2013-07-06 21:15:00,
2013-07-06 17:21:00,90.6,68.8,29.96,NW,308,7.0,15.0,49,0.00,,,0.00,468,HR-IXPWINDi_r2_v1.2.,2013-07-06 21:21:00,
2013-07-06 17:26:00,90.4,68.6,29.96,NW,319,6.0,17.0,49,0.00,,,0.00,455,HR-IXPWINDi_r2_v1.2.,2013-07-06 21:26:00,
2013-07-06 17:31:00,90.4,69.2,29.96,NW,307,4.0,17.0,50,0.00,,,0.00,234,HR-IXPWINDi_r2_v1.2.,2013-07-06 21:31:00,
2013-07-06 17:36:00,90.3,69.1,29.96,West,271,9.0,18.0,50,0.00,,,0.00,346,HR-IXPWINDi_r2_v1.2.,2013-07-06 21:36:00,
2013-07-06 17:42:00,90.4,68.6,29.96,NW,306,8.0,18.0,49,0.00,,,0.00,302,HR-IXPWINDi_r2_v1.2.,2013-07-06 21:42:00,
2013-07-06 17:47:00,90.2,68.4,29.96,South,182,6.0,15.0,49,0.00,,,0.00,401,HR-IXPWINDi_r2_v1.2.,2013-07-06 21:47:00,
2013-07-06 17:52:00,90.3,67.9,29.96,West,274,5.0,15.0,48,0.00,,,0.00,378,HR-IXPWINDi_r2_v1.2.,2013-07-06 21:52:00,
2013-07-06 17:57:00,90.2,66.6,29.96,West,262,12.0,17.0,46,0.00,,,0.00,362,HR-IXPWINDi_r2_v1.2.,2013-07-06 21:57:00,
2013-07-06 18:03:00,90.1,67.1,29.96,WSW,248,8.0,17.0,47,0.00,,,0.00,338,HR-IXPWINDi_r2_v1.2.,2013-07-06 22:03:00,
2013-07-06 18:08:00,90.0,67.0,29.96,West,272,5.0,21.0,47,0.00,,,0.00,232,HR-IXPWINDi_r2_v1.2.,2013-07-06 22:08:00,
2013-07-06 18:13:00,89.9,66.9,29.96,West,281,7.0,21.0,47,0.00,,,0.00,274,HR-IXPWINDi_r2_v1.2.,2013-07-06 22:13:00,
2013-07-06 18:18:00,89.6,66.7,29.96,NNW,332,6.0,15.0,47,0.00,,,0.00,269,HR-IXPWINDi_r2_v1.2.,2013-07-06 22:18:00,
2013-07-06 18:23:00,89.9,67.5,29.96,WNW,298,5.0,14.0,48,0.00,,,0.00,246,HR-IXPWINDi_r2_v1.2.,2013-07-06 22:23:00,
2013-07-06 18:28:00,89.7,65.5,29.96,NNW,342,8.0,20.0,45,0.00,,,0.00,214,HR-IXPWINDi_r2_v1.2.,2013-07-06 22:28:00,
2013-07-06 18:33:00,89.5,65.3,29.96,WNW,288,6.0,20.0,45,0.00,,,0.00,223,HR-IXPWINDi_r2_v1.2.,2013-07-06 22:33:00,
2013-07-06 18:38:00,89.3,65.1,29.96,West,263,3.0,15.0,45,0.00,,,0.00,202,HR-IXPWINDi_r2_v1.2.,2013-07-06 22:38:00,
2013-07-06 18:43:00,89.2,65.7,29.96,WNW,294,7.0,16.0,46,0.00,,,0.00,171,HR-IXPWINDi_r2_v1.2.,2013-07-06 22:43:00,
2013-07-06 18:48:00,89.0,65.5,29.96,WSW,255,12.0,16.0,46,0.00,,,0.00,185,HR-IXPWINDi_r2_v1.2.,2013-07-06 22:48:00,
2013-07-06 18:54:00,88.8,65.9,29.96,West,272,5.0,13.0,47,0.00,,,0.00,167,HR-IXPWINDi_r2_v1.2.,2013-07-06 22:54:00,
2013-07-06 18:59:00,88.7,65.8,29.96,WNW,301,8.0,13.0,47,0.00,,,0.00,128,HR-IXPWINDi_r2_v1.2.,2013-07-06 22:59:00,
2013-07-06 19:04:00,88.6,65.8,29.96,West,280,6.0,13.0,47,0.00,,,0.00,121,HR-IXPWINDi_r2_v1.2.,2013-07-06 23:04:00,
2013-07-06 19:09:00,88.5,66.3,29.96,West,279,6.0,14.0,48,0.00,,,0.00,95,HR-IXPWINDi_r2_v1.2.,2013-07-06 23:09:00,
2013-07-06 19:15:00,88.3,66.1,29.96,WNW,298,14.0,17.0,48,0.00,,,0.00,83,HR-IXPWINDi_r2_v1.2.,2013-07-06 23:15:00,
2013-07-06 19:20:00,87.9,66.3,29.96,West,275,10.0,17.0,49,0.00,,,0.00,77,HR-IXPWINDi_r2_v1.2.,2013-07-06 23:20:00,
2013-07-06 19:25:00,87.7,66.1,29.96,WSW,258,7.0,14.0,49,0.00,,,0.00,63,HR-IXPWINDi_r2_v1.2.,2013-07-06 23:25:00,
2013-07-06 19:31:00,87.5,66.0,29.96,West,260,5.0,13.0,49,0.00,,,0.00,65,HR-IXPWINDi_r2_v1.2.,2013-07-06 23:31:00,
2013-07-06 19:36:00,87.2,66.3,29.96,SSW,204,3.0,13.0,50,0.00,,,0.00,51,HR-IXPWINDi_r2_v1.2.,2013-07-06 23:36:00,
2013-07-06 19:41:00,86.9,66.0,29.96,NW,312,5.0,13.0,50,0.00,,,0.00,46,HR-IXPWINDi_r2_v1.2.,2013-07-06 23:41:00,
2013-07-06 19:46:00,86.7,66.4,29.96,West,279,7.0,10.0,51,0.00,,,0.00,40,HR-IXPWINDi_r2_v1.2.,2013-07-06 23:46:00,
2013-07-06 19:51:00,86.6,66.3,29.97,WSW,254,7.0,10.0,51,0.00,,,0.00,32,HR-IXPWINDi_r2_v1.2.,2013-07-06 23:51:00,
2013-07-06 19:57:00,86.5,66.2,29.97,WSW,238,2.0,10.0,51,0.00,,,0.00,23,HR-IXPWINDi_r2_v1.2.,2013-07-06 23:57:00,
2013-07-06 20:02:00,86.4,66.1,29.97,West,269,4.0,12.0,51,0.00,,,0.00,18,HR-IXPWINDi_r2_v1.2.,2013-07-07 00:02:00,
2013-07-06 20:07:00,86.2,66.5,29.97,WNW,295,2.0,12.0,52,0.00,,,0.00,14,HR-IXPWINDi_r2_v1.2.,2013-07-07 00:07:00,
2013-07-06 20:12:00,85.9,66.2,29.97,WNW,285,3.0,7.0,52,0.00,,,0.00,11,HR-IXPWINDi_r2_v1.2.,2013-07-07 00:12:00,
2013-07-06 20:17:00,85.6,66.5,29.97,WNW,287,4.0,6.0,53,0.00,,,0.00,7,HR-IXPWINDi_r2_v1.2.,2013-07-07 00:17:00,
2013-07-06 20:22:00,85.6,66.5,29.97,WNW,301,3.0,7.0,53,0.00,,,0.00,0,HR-IXPWINDi_r2_v1.2.,2013-07-07 00:22:00,
2013-07-06 20:27:00,85.3,66.7,29.97,NW,317,3.0,7.0,54,0.00,,,0.00,0,HR-IXPWINDi_r2_v1.2.,2013-07-07 00:27:00,
2013-07-06 20:33:00,85.0,66.5,29.97,SW,234,3.0,6.0,54,0.00,,,0.00,0,HR-IXPWINDi_r2_v1.2.,2013-07-07 00:33:00,
2013-07-06 20:38:00,84.6,66.1,29.97,SW,232,3.0,6.0,54,0.00,,,0.00,0,HR-IXPWINDi_r2_v1.2.,2013-07-07 00:38:00,
2013-07-06 20:43:00,84.3,65.8,29.97,WSW,248,9.0,9.0,54,0.00,,,0.00,0,HR-IXPWINDi_r2_v1.2.,2013-07-07 00:43:00,
2013-07-06 20:48:00,84.1,65.6,29.97,SW,223,4.0,9.0,54,0.00,,,0.00,0,HR-IXPWINDi_r2_v1.2.,2013-07-07 00:48:00,
2013-07-06 20:53:00,84.0,66.1,29.98,WSW,248,6.0,9.0,55,0.00,,,0.00,0,HR-IXPWINDi_r2_v1.2.,2013-07-07 00:53:00,
2013-07-06 20:59:00,83.7,66.3,29.98,WNW,300,2.0,7.0,56,0.00,,,0.00,0,HR-IXPWINDi_r2_v1.2.,2013-07-07 00:59:00,
2013-07-06 21:04:00,83.5,66.1,29.98,NW,323,3.0,8.0,56,0.00,,,0.00,0,HR-IXPWINDi_r2_v1.2.,2013-07-07 01:04:00,
2013-07-06 21:09:00,83.3,66.4,29.99,NNW,342,4.0,8.0,57,0.00,,,0.00,0,HR-IXPWINDi_r2_v1.2.,2013-07-07 01:09:00,
2013-07-06 21:14:00,83.1,66.2,29.99,WNW,298,8.0,10.0,57,0.00,,,0.00,0,HR-IXPWINDi_r2_v1.2.,2013-07-07 01:14:00,
2013-07-06 21:20:00,83.2,66.3,29.98,NW,323,5.0,11.0,57,0.00,,,0.00,0,HR-IXPWINDi_r2_v1.2.,2013-07-07 01:20:00,
2013-07-06 21:25:00,83.2,66.3,29.98,NW,306,7.0,11.0,57,0.00,,,0.00,0,HR-IXPWINDi_r2_v1.2.,2013-07-07 01:25:00,
2013-07-06 21:30:00,83.2,66.3,29.99,NW,312,2.0,11.0,57,0.00,,,0.00,0,HR-IXPWINDi_r2_v1.2.,2013-07-07 01:30:00,
2013-07-06 21:35:00,83.0,66.2,29.99,NW,312,2.0,9.0,57,0.00,,,0.00,0,HR-IXPWINDi_r2_v1.2.,2013-07-07 01:35:00,
2013-07-06 21:41:00,82.8,66.5,29.99,NNW,337,0.0,7.0,58,0.00,,,0.00,0,HR-IXPWINDi_r2_v1.2.,2013-07-07 01:41:00,
2013-07-06 21:46:00,82.7,66.4,29.99,NW,306,1.0,6.0,58,0.00,,,0.00,0,HR-IXPWINDi_r2_v1.2.,2013-07-07 01:46:00,
2013-07-06 21:51:00,82.6,66.3,29.99,NW,306,4.0,7.0,58,0.00,,,0.00,0,HR-IXPWINDi_r2_v1.2.,2013-07-07 01:51:00,
2013-07-06 21:56:00,82.6,65.3,29.99,WNW,286,4.0,8.0,56,0.00,,,0.00,0,HR-IXPWINDi_r2_v1.2.,2013-07-07 01:56:00,
2013-07-06 22:01:00,82.6,64.8,29.99,NW,324,6.0,8.0,55,0.00,,,0.00,0,HR-IXPWINDi_r2_v1.2.,2013-07-07 02:01:00,
2013-07-06 22:06:00,82.6,64.8,29.99,NW,315,3.0,12.0,55,0.00,,,0.00,0,HR-IXPWINDi_r2_v1.2.,2013-07-07 02:06:00,
2013-07-06 22:11:00,82.5,64.7,29.99,NW,323,5.0,12.0,55,0.00,,,0.00,0,HR-IXPWINDi_r2_v1.2.,2013-07-07 02:11:00,
2013-07-06 22:17:00,82.3,64.5,29.99,NW,309,0.0,9.0,55,0.00,,,0.00,0,HR-IXPWINDi_r2_v1.2.,2013-07-07 02:17:00,
2013-07-06 22:22:00,82.2,64.4,29.99,West,261,1.0,9.0,55,0.00,,,0.00,0,HR-IXPWINDi_r2_v1.2.,2013-07-07 02:22:00,
2013-07-06 22:27:00,82.1,64.3,29.99,WNW,297,1.0,9.0,55,0.00,,,0.00,0,HR-IXPWINDi_r2_v1.2.,2013-07-07 02:27:00,
2013-07-06 22:32:00,81.9,64.6,29.99,NW,314,3.0,8.0,56,0.00,,,0.00,0,HR-IXPWINDi_r2_v1.2.,2013-07-07 02:32:00,
2013-07-06 22:38:00,81.8,64.5,29.99,WNW,298,1.0,8.0,56,0.00,,,0.00,0,HR-IXPWINDi_r2_v1.2.,2013-07-07 02:38:00,
2013-07-06 22:43:00,81.6,64.3,29.99,WNW,288,4.0,8.0,56,0.00,,,0.00,0,HR-IXPWINDi_r2_v1.2.,2013-07-07 02:43:00,
2013-07-06 22:48:00,81.5,64.2,29.99,West,281,5.0,8.0,56,0.00,,,0.00,0,HR-IXPWINDi_r2_v1.2.,2013-07-07 02:48:00,
2013-07-06 22:53:00,81.2,64.0,29.99,West,266,3.0,8.0,56,0.00,,,0.00,0,HR-IXPWINDi_r2_v1.2.,2013-07-07 02:53:00,
2013-07-06 22:58:00,81.1,63.9,29.99,WNW,284,5.0,8.0,56,0.00,,,0.00,0,HR-IXPWINDi_r2_v1.2.,2013-07-07 02:58:00,
2013-07-06 23:04:00,81.0,63.8,30.00,WSW,255,2.0,8.0,56,0.00,,,0.00,0,HR-IXPWINDi_r2_v1.2.,2013-07-07 03:04:00,
2013-07-06 23:09:00,80.8,63.6,30.00,WNW,294,4.0,7.0,56,0.00,,,0.00,0,HR-IXPWINDi_r2_v1.2.,2013-07-07 03:09:00,
2013-07-06 23:14:00,80.7,63.5,30.00,West,270,0.0,8.0,56,0.00,,,0.00,0,HR-IXPWINDi_r2_v1.2.,2013-07-07 03:14:00,
2013-07-06 23:19:00,80.6,63.4,30.00,NW,309,5.0,8.0,56,0.00,,,0.00,0,HR-IXPWINDi_r2_v1.2.,2013-07-07 03:19:00,
2013-07-06 23:24:00,80.4,63.7,30.00,WNW,302,3.0,7.0,57,0.00,,,0.00,0,HR-IXPWINDi_r2_v1.2.,2013-07-07 03:24:00,
2013-07-06 23:30:00,80.2,63.5,30.01,WNW,297,2.0,8.0,57,0.00,,,0.00,0,HR-IXPWINDi_r2_v1.2.,2013-07-07 03:30:00,
2013-07-06 23:35:00,80.2,63.5,30.00,WNW,291,1.0,8.0,57,0.00,,,0.00,0,HR-IXPWINDi_r2_v1.2.,2013-07-07 03:35:00,
2013-07-06 23:40:00,80.1,63.4,30.00,West,269,1.0,7.0,57,0.00,,,0.00,0,HR-IXPWINDi_r2_v1.2.,2013-07-07 03:40:00,
2013-07-06 23:45:00,79.9,63.3,30.00,WNW,283,1.0,6.0,57,0.00,,,0.00,0,HR-IXPWINDi_r2_v1.2.,2013-07-07 03:45:00,
2013-07-06 23:50:00,79.8,63.2,30.00,NW,312,2.0,7.0,57,0.00,,,0.00,0,HR-IXPWINDi_r2_v1.2.,2013-07-07 03:50:00,
2013-07-06 23:55:00,79.6,63.5,30.00,NW,311,2.0,7.0,58,0.00,,,0.00,0,HR-IXPWINDi_r2_v1.2.,2013-07-07 03:55:00,